Voltar ao catálogo

STARLINK-36310

AtivoComunicaçõesVLEO
NORAD 68244·PAYLOAD·🇺🇸 United States

Lançado Mar 17, 2026 de Vandenberg Space Force Base

Loading…

Próximas Passagens (próximas 24 horas)

TLE

AtualizadoSource: CelesTrak SupGP

Época: Sep 14, 2026, 23:31 UTC

1 68244C 26054N   26257.98034722 -.00034001  00000+0 -10046-2 0  2577
2 68244  53.1577 127.6007 0001347  84.5819 301.7390 15.34405845    10

Acompanhe STARLINK-36310 em tempo real com AllMySat

Download on the App Store